When you browse on this site, cookies collect data to enhance your experience and personalize the content and advertising you see.
Visit our Privacy Policy to learn more. By continuing to use the site, you agree to this use of cookies and data.
  • In Hungary
  • List of Countries
  • For 7 days
  • Water Temperature
  • Weather Map
  • News
  • Weather Widgets
  • user-avatar
    Login

    Hourly Weather Hoctun

    Today, 14 November, Thursday

    Time Temperature Precipitation Wind Pressure Humidity
    00:00 +24°C° 0 mm 1 mps 759 mmHg 97%
    01:00 +24°C° 0 mm 1 mps 759 mmHg 98%
    02:00 +24°C° 0 mm 1 mps 759 mmHg 98%
    03:00 +23°C° 0 mm 1 mps 759 mmHg 98%
    04:00 +23°C° 0.3 mm 1 mps 759 mmHg 98%
    05:00 +24°C° 0.3 mm 1 mps 759 mmHg 98%
    06:00 +24°C° 0.3 mm 1 mps 759 mmHg 98%
    07:00 +25°C° 0.4 mm 1 mps 759 mmHg 95%
    08:00 +26°C° 0.4 mm 1 mps 760 mmHg 91%
    09:00 +27°C° 0.4 mm 2 mps 760 mmHg 88%
    10:00 +28°C° 1.4 mm 2 mps 760 mmHg 84%
    11:00 +29°C° 1.4 mm 1 mps 759 mmHg 81%
    12:00 +30°C° 1.4 mm 1 mps 759 mmHg 78%
    13:00 +29°C° 2.1 mm 2 mps 758 mmHg 81%
    14:00 +29°C° 2.1 mm 2 mps 758 mmHg 85%
    15:00 +28°C° 2.1 mm 2 mps 758 mmHg 88%
    16:00 +27°C° 1.8 mm 3 mps 758 mmHg 91%
    17:00 +26°C° 1.8 mm 3 mps 758 mmHg 93%
    18:00 +25°C° 1.8 mm 3 mps 758 mmHg 95%
    19:00 +25°C° 0.1 mm 3 mps 759 mmHg 95%
    20:00 +25°C° 0.1 mm 2 mps 760 mmHg 96%
    21:00 +25°C° 0.1 mm 2 mps 760 mmHg 96%
    22:00 +25°C° 0 mm 2 mps 760 mmHg 96%
    23:00 +24°C° 0 mm 2 mps 760 mmHg 97%

    Tomorrow, 15 November, Friday

    Time Temperature Precipitation Wind Pressure Humidity
    00:00 +24°C° 0 mm 2 mps 760 mmHg 97%
    01:00 +24°C° 0 mm 2 mps 760 mmHg 97%
    02:00 +24°C° 0 mm 1 mps 759 mmHg 97%
    03:00 +24°C° 0 mm 1 mps 759 mmHg 98%
    04:00 +24°C° 0.1 mm 1 mps 760 mmHg 98%
    05:00 +24°C° 0.1 mm 1 mps 760 mmHg 98%
    06:00 +24°C° 0.1 mm 1 mps 760 mmHg 98%
    07:00 +25°C° 0.1 mm 2 mps 761 mmHg 93%
    08:00 +26°C° 0.1 mm 2 mps 761 mmHg 88%
    09:00 +27°C° 0.1 mm 3 mps 761 mmHg 83%
    10:00 +28°C° 0.1 mm 3 mps 761 mmHg 75%
    11:00 +29°C° 0.1 mm 3 mps 761 mmHg 66%
    12:00 +30°C° 0.1 mm 3 mps 760 mmHg 58%
    13:00 +30°C° 0 mm 3 mps 760 mmHg 61%
    14:00 +29°C° 0 mm 4 mps 759 mmHg 64%
    15:00 +28°C° 0 mm 4 mps 759 mmHg 67%
    16:00 +27°C° 0 mm 3 mps 759 mmHg 74%
    17:00 +26°C° 0 mm 2 mps 760 mmHg 81%
    18:00 +24°C° 0 mm 2 mps 760 mmHg 87%
    19:00 +24°C° 0 mm 2 mps 761 mmHg 89%
    20:00 +24°C° 0 mm 2 mps 761 mmHg 90%
    21:00 +23°C° 0 mm 2 mps 762 mmHg 91%
    22:00 +23°C° 0 mm 2 mps 761 mmHg 91%
    23:00 +23°C° 0 mm 2 mps 761 mmHg 91%

    Day after tomorrow, 16 November, Saturday

    Time Temperature Precipitation Wind Pressure Humidity
    00:00 +21°C° 0 mm 2 mps 761 mmHg 91%
    01:00 +21°C° 0 mm 2 mps 761 mmHg 91%
    02:00 +21°C° 0 mm 2 mps 761 mmHg 92%
    03:00 +21°C° 0 mm 2 mps 760 mmHg 92%
    04:00 +21°C° 0 mm 2 mps 761 mmHg 91%
    05:00 +21°C° 0 mm 2 mps 761 mmHg 90%
    06:00 +21°C° 0 mm 2 mps 761 mmHg 89%
    07:00 +23°C° 0 mm 2 mps 762 mmHg 80%
    08:00 +25°C° 0 mm 3 mps 762 mmHg 71%
    09:00 +26°C° 0 mm 3 mps 762 mmHg 62%
    10:00 +27°C° 0 mm 3 mps 762 mmHg 62%
    11:00 +27°C° 0 mm 3 mps 761 mmHg 61%
    12:00 +27°C° 0 mm 3 mps 761 mmHg 60%
    13:00 +27°C° 0 mm 3 mps 760 mmHg 60%
    14:00 +27°C° 0 mm 3 mps 760 mmHg 59%
    15:00 +26°C° 0 mm 3 mps 759 mmHg 59%
    16:00 +24°C° 0 mm 2 mps 760 mmHg 64%
    17:00 +21°C° 0 mm 2 mps 760 mmHg 69%
    18:00 +21°C° 0 mm 1 mps 760 mmHg 75%
    19:00 +20°C° 0 mm 1 mps 761 mmHg 77%
    20:00 +19°C° 0 mm 1 mps 761 mmHg 78%
    21:00 +17°C° 0 mm 0 mps 761 mmHg 80%
    22:00 +17°C° 0 mm 0 mps 761 mmHg 79%
    23:00 +17°C° 0 mm 0 mps 761 mmHg 77%

    17 November, Sunday

    Time Temperature Precipitation Wind Pressure Humidity
    00:00 +18°C° 0 mm 0 mps 761 mmHg 76%
    01:00 +18°C° 0 mm 0 mps 760 mmHg 77%
    02:00 +17°C° 0 mm 0 mps 760 mmHg 77%
    03:00 +17°C° 0 mm 0 mps 760 mmHg 78%
    04:00 +17°C° 0 mm 0 mps 760 mmHg 77%
    05:00 +17°C° 0 mm 0 mps 760 mmHg 77%
    06:00 +18°C° 0 mm 0 mps 760 mmHg 76%
    07:00 +19°C° 0 mm 0 mps 760 mmHg 70%
    08:00 +23°C° 0 mm 1 mps 760 mmHg 64%
    09:00 +25°C° 0 mm 1 mps 760 mmHg 58%
    10:00 +25°C° 0 mm 1 mps 760 mmHg 55%
    11:00 +26°C° 0 mm 1 mps 759 mmHg 53%
    12:00 +27°C° 0 mm 2 mps 759 mmHg 51%
    13:00 +27°C° 0 mm 2 mps 758 mmHg 51%
    14:00 +27°C° 0 mm 2 mps 758 mmHg 52%
    15:00 +26°C° 0 mm 2 mps 757 mmHg 53%
    16:00 +24°C° 0 mm 2 mps 757 mmHg 60%
    17:00 +22°C° 0 mm 1 mps 758 mmHg 68%
    18:00 +21°C° 0 mm 1 mps 758 mmHg 76%
    19:00 +20°C° 0 mm 1 mps 758 mmHg 77%
    20:00 +19°C° 0 mm 1 mps 759 mmHg 78%
    21:00 +19°C° 0 mm 1 mps 759 mmHg 80%
    22:00 +17°C° 0 mm 0 mps 759 mmHg 79%
    23:00 +17°C° 0 mm 0 mps 759 mmHg 79%

    18 November, Monday

    Time Temperature Precipitation Wind Pressure Humidity
    00:00 +17°C° 0 mm 0 mps 759 mmHg 78%
    01:00 +17°C° 0 mm 0 mps 759 mmHg 79%
    02:00 +17°C° 0 mm 0 mps 759 mmHg 80%
    03:00 +17°C° 0 mm 0 mps 758 mmHg 80%
    04:00 +18°C° 0 mm 1 mps 759 mmHg 81%
    05:00 +18°C° 0 mm 1 mps 759 mmHg 81%
    06:00 +18°C° 0 mm 1 mps 759 mmHg 82%
    07:00 +20°C° 0 mm 1 mps 760 mmHg 75%
    08:00 +22°C° 0 mm 1 mps 760 mmHg 68%
    09:00 +24°C° 0 mm 1 mps 760 mmHg 61%
    10:00 +25°C° 0 mm 1 mps 760 mmHg 58%
    11:00 +25°C° 0 mm 2 mps 759 mmHg 55%
    12:00 +26°C° 0 mm 2 mps 759 mmHg 52%
    13:00 +26°C° 0 mm 2 mps 758 mmHg 53%
    14:00 +26°C° 0 mm 2 mps 757 mmHg 53%
    15:00 +26°C° 0 mm 2 mps 757 mmHg 54%
    16:00 +25°C° 0 mm 1 mps 757 mmHg 61%
    17:00 +23°C° 0 mm 1 mps 758 mmHg 69%
    18:00 +21°C° 0 mm 1 mps 758 mmHg 76%
    19:00 +20°C° 0 mm 1 mps 758 mmHg 78%
    20:00 +20°C° 0 mm 1 mps 759 mmHg 80%
    21:00 +17°C° 0 mm 0 mps 759 mmHg 82%
    22:00 +17°C° 0 mm 0 mps 759 mmHg 82%
    23:00 +16°C° 0 mm 0 mps 759 mmHg 83%

    19 November, Tuesday

    Time Temperature Precipitation Wind Pressure Humidity
    00:00 +16°C° 0 mm 0 mps 759 mmHg 84%
    01:00 +16°C° 0 mm 0 mps 759 mmHg 84%
    02:00 +16°C° 0 mm 0 mps 759 mmHg 85%
    03:00 +16°C° 0 mm 0 mps 759 mmHg 86%
    04:00 +16°C° 0 mm 0 mps 759 mmHg 84%
    05:00 +16°C° 0 mm 0 mps 760 mmHg 83%
    06:00 +17°C° 0 mm 0 mps 760 mmHg 81%
    07:00 +18°C° 0 mm 0 mps 760 mmHg 75%
    08:00 +22°C° 0 mm 1 mps 761 mmHg 70%
    09:00 +24°C° 0 mm 1 mps 761 mmHg 64%
    10:00 +25°C° 0 mm 1 mps 761 mmHg 61%
    11:00 +26°C° 0 mm 1 mps 760 mmHg 58%
    12:00 +26°C° 0 mm 2 mps 760 mmHg 55%
    13:00 +26°C° 0 mm 2 mps 760 mmHg 54%
    14:00 +27°C° 0 mm 2 mps 759 mmHg 54%
    15:00 +27°C° 0 mm 2 mps 759 mmHg 53%
    16:00 +25°C° 0 mm 2 mps 759 mmHg 61%
    17:00 +23°C° 0 mm 1 mps 760 mmHg 69%
    18:00 +21°C° 0 mm 1 mps 760 mmHg 77%
    19:00 +21°C° 0 mm 1 mps 761 mmHg 80%
    20:00 +20°C° 0 mm 1 mps 761 mmHg 83%
    21:00 +17°C° 0 mm 0 mps 762 mmHg 86%
    22:00 +18°C° 0 mm 0 mps 762 mmHg 84%
    23:00 +18°C° 0 mm 0 mps 762 mmHg 82%
    Show more